| time (UTC) | temp F | wind direction | speed MPH | gust MPH | rain 1hr in | rain 24hr in | rain mn in | humidity % | barometer mb |
| 20260508174949 | 74 | 130 | 0.0 | 2.0 | 0.00 | 0.00 | 0.00 | 34 | 1011.3 |
| 20260508173951 | 74 | 130 | 0.0 | 2.0 | 0.00 | 0.00 | 0.00 | 36 | 1011.5 |
| 20260508173005 | 74 | 138 | 0.0 | 2.0 | 0.00 | 0.00 | 0.00 | 36 | 1011.6 |
| 20260508172000 | 74 | 139 | 0.0 | 0.0 | 0.00 | 0.00 | 0.00 | 37 | 1011.4 |
| 20260508171015 | 74 | 154 | 0.0 | 4.0 | 0.00 | 0.00 | 0.00 | 39 | 1011.3 |
| 20260508165954 | 74 | 159 | 0.0 | 3.0 | 0.00 | 0.00 | 0.00 | 38 | 1011.4 |
| 20260508163816 | 73 | 130 | 0.0 | 5.0 | 0.00 | 0.00 | 0.00 | 39 | 1011.9 |
| 20260508162802 | 73 | 20 | 0.0 | 5.0 | 0.00 | 0.00 | 0.00 | 38 | 1011.9 |
| 20260508160545 | 73 | 305 | 0.0 | 5.0 | 0.00 | 0.00 | 0.00 | 33 | 1011.9 |
| 20260508155608 | 72 | 332 | 0.0 | 3.0 | 0.00 | 0.00 | 0.00 | 26 | 1012.1 |
| 20260508154602 | 71 | 132 | 0.0 | 5.0 | 0.00 | 0.00 | 0.00 | 27 | 1012.4 |
| 20260508153557 | 70 | 355 | 1.0 | 5.0 | 0.00 | 0.00 | 0.00 | 27 | 1012.6 |
| 20260508152537 | 70 | 20 | 0.0 | 4.0 | 0.00 | 0.00 | 0.00 | 23 | 1012.7 |
| 20260508151541 | 69 | 34 | 0.0 | 4.0 | 0.00 | 0.00 | 0.00 | 21 | 1012.8 |
| 20260508150550 | 69 | 279 | 1.0 | 3.0 | 0.00 | 0.00 | 0.00 | 21 | 1013.0 |
| 20260508145550 | 69 | 76 | 0.0 | 4.0 | 0.00 | 0.00 | 0.00 | 16 | 1013.1 |
| 20260508144533 | 68 | 96 | 0.0 | 5.0 | 0.00 | 0.00 | 0.00 | 15 | 1013.0 |
| 20260508143546 | 67 | 332 | 1.0 | 5.0 | 0.00 | 0.00 | 0.00 | 17 | 1013.3 |
| 20260508142551 | 67 | 347 | 0.0 | 5.0 | 0.00 | 0.00 | 0.00 | 17 | 1013.5 |
| 20260508141610 | 68 | 306 | 0.0 | 5.0 | 0.00 | 0.00 | 0.00 | 16 | 1013.4 |
| 20260508140559 | 68 | 315 | 0.0 | 8.0 | 0.00 | 0.00 | 0.00 | 15 | 1013.3 |
| 20260508135605 | 68 | 192 | 1.0 | 8.0 | 0.00 | 0.00 | 0.00 | 16 | 1013.3 |
| 20260508133440 | 68 | 350 | 0.0 | 3.0 | 0.00 | 0.00 | 0.00 | 15 | 1013.1 |
| 20260508132430 | 68 | 0 | 0.0 | 3.0 | 0.00 | 0.00 | 0.00 | 15 | 1013.0 |
| 20260508131443 | 67 | 80 | 0.0 | 0.0 | 0.00 | 0.00 | 0.00 | 16 | 1012.8 |
| 20260508130453 | 67 | 80 | 0.0 | 1.0 | 0.00 | 0.00 | 0.00 | 17 | 1012.5 |
| 20260508124336 | 67 | 80 | 0.0 | 0.0 | 0.00 | 0.00 | 0.00 | 25 | 1012.1 |
| 20260508123334 | 67 | 80 | 0.0 | 1.0 | 0.00 | 0.00 | 0.00 | 28 | 1012.6 |
| 20260508122317 | 67 | 80 | 0.0 | 2.0 | 0.00 | 0.00 | 0.00 | 32 | 1012.6 |
| 20260508120214 | 68 | 84 | 0.0 | 2.0 | 0.00 | 0.00 | 0.00 | 38 | 1012.7 |
| 20260508115202 | 68 | 0 | 0.0 | 3.0 | 0.00 | 0.00 | 0.00 | 40 | 1012.9 |
| 20260508114225 | 68 | 165 | 0.0 | 0.0 | 0.00 | 0.00 | 0.00 | 41 | 1012.8 |
| 20260508112149 | 68 | 165 | 0.0 | 0.0 | 0.00 | 0.00 | 0.00 | 44 | 1012.8 |
| 20260508104857 | 68 | 350 | 0.0 | 3.0 | 0.00 | 0.00 | 0.00 | 44 | 1012.0 |
| 20260508103906 | 68 | 11 | 0.0 | 5.0 | 0.00 | 0.00 | 0.00 | 44 | 1012.3 |
| 20260508102915 | 68 | 304 | 0.0 | 1.0 | 0.00 | 0.00 | 0.00 | 43 | 1012.8 |
| 20260508101918 | 68 | 303 | 0.0 | 1.0 | 0.00 | 0.00 | 0.00 | 42 | 1012.9 |
| 20260508100858 | 68 | 303 | 0.0 | 0.0 | 0.00 | 0.00 | 0.00 | 43 | 1013.1 |
| 20260508095915 | 68 | 303 | 0.0 | 3.0 | 0.00 | 0.00 | 0.00 | 43 | 1013.0 |
| 20260508094927 | 68 | 74 | 0.0 | 2.0 | 0.00 | 0.00 | 0.00 | 44 | 1012.1 |
| 20260508092823 | 68 | 74 | 0.0 | 3.0 | 0.00 | 0.00 | 0.00 | 45 | 1012.5 |
| 20260508091755 | 68 | 313 | 0.0 | 3.0 | 0.00 | 0.00 | 0.00 | 47 | 1012.3 |
| 20260508090812 | 68 | 0 | 0.0 | 2.0 | 0.00 | 0.00 | 0.00 | 48 | 1012.0 |
| 20260508085824 | 68 | 311 | 0.0 | 3.0 | 0.00 | 0.00 | 0.00 | 49 | 1012.3 |
| 20260508084825 | 69 | 329 | 0.0 | 1.0 | 0.00 | 0.00 | 0.00 | 49 | 1012.4 |
| 20260508083844 | 69 | 329 | 0.0 | 0.0 | 0.00 | 0.00 | 0.00 | 50 | 1012.6 |
| 20260508082905 | 69 | 329 | 0.0 | 0.0 | 0.00 | 0.00 | 0.00 | 52 | 1012.7 |
| 20260508081839 | 69 | 329 | 0.0 | 2.0 | 0.00 | 0.00 | 0.00 | 52 | 1012.4 |
| 20260508080807 | 69 | 323 | 0.0 | 3.0 | 0.00 | 0.00 | 0.00 | 53 | 1012.5 |
| 20260508075757 | 69 | 5 | 0.0 | 3.0 | 0.00 | 0.00 | 0.00 | 53 | 1012.4 |
| 20260508074821 | 68 | 75 | 0.0 | 0.0 | 0.00 | 0.00 | 0.00 | 53 | 1012.7 |
| 20260508073844 | 68 | 76 | 0.0 | 1.0 | 0.00 | 0.00 | 0.00 | 54 | 1013.1 |
| 20260508072843 | 68 | 355 | 0.0 | 0.0 | 0.00 | 0.00 | 0.00 | 54 | 1013.2 |
| 20260508070742 | 68 | 327 | 0.0 | 3.0 | 0.00 | 0.00 | 0.00 | 55 | 1013.2 |
| 20260508065753 | 68 | 202 | 0.0 | 2.0 | 0.00 | 0.00 | 0.00 | 55 | 1012.9 |
| 20260508064757 | 68 | 315 | 0.0 | 1.0 | 0.00 | 0.00 | 0.00 | 54 | 1013.2 |
| 20260508063744 | 68 | 315 | 0.0 | 1.0 | 0.00 | 0.00 | 0.00 | 54 | 1013.4 |
| 20260508062724 | 68 | 325 | 0.0 | 0.0 | 0.00 | 0.00 | 0.00 | 54 | 1013.7 |
| 20260508060541 | 68 | 325 | 0.0 | 1.0 | 0.00 | 0.00 | 0.00 | 55 | 1012.9 |
| 20260508055541 | 68 | 325 | 0.0 | 3.0 | 0.00 | 0.00 | 0.00 | 57 | 1013.0 |
| 20260508054521 | 68 | 324 | 0.0 | 3.0 | 0.00 | 0.00 | 0.00 | 58 | 1013.3 |
| 20260508053526 | 69 | 334 | 0.0 | 2.0 | 0.00 | 0.00 | 0.00 | 59 | 1013.3 |
| 20260508051356 | 69 | 334 | 0.0 | 1.0 | 0.00 | 0.00 | 0.00 | 61 | 1013.2 |
| 20260508050418 | 69 | 326 | 0.0 | 0.0 | 0.00 | 0.00 | 0.00 | 61 | 1012.8 |
| 20260508045422 | 69 | 331 | 0.0 | 2.0 | 0.00 | 0.00 | 0.00 | 62 | 1013.1 |
| 20260508044425 | 69 | 100 | 0.0 | 2.0 | 0.00 | 0.00 | 0.00 | 62 | 1013.0 |
| 20260508043437 | 69 | 355 | 0.0 | 1.0 | 0.00 | 0.00 | 0.00 | 63 | 1013.0 |
| 20260508042438 | 69 | 355 | 0.0 | 1.0 | 0.00 | 0.00 | 0.00 | 64 | 1013.3 |
| 20260508041453 | 69 | 75 | 0.0 | 2.0 | 0.00 | 0.00 | 0.00 | 64 | 1013.3 |
| 20260508040435 | 70 | 89 | 0.0 | 1.0 | 0.00 | 0.00 | 0.00 | 64 | 1013.3 |
| 20260508035436 | 70 | 89 | 0.0 | 3.0 | 0.00 | 0.00 | 0.00 | 65 | 1013.0 |
| 20260508034416 | 70 | 332 | 0.0 | 3.0 | 0.00 | 0.00 | 0.00 | 65 | 1013.1 |
| 20260508033404 | 70 | 302 | 0.0 | 5.0 | 0.00 | 0.00 | 0.00 | 65 | 1013.0 |
| 20260508032357 | 70 | 341 | 0.0 | 6.0 | 0.00 | 0.00 | 0.00 | 66 | 1013.3 |
| 20260508030233 | 70 | 209 | 0.0 | 2.0 | 0.00 | 0.00 | 0.00 | 65 | 1013.4 |
| 20260508025223 | 71 | 226 | 0.0 | 2.0 | 0.00 | 0.00 | 0.00 | 65 | 1013.6 |
| 20260508024235 | 71 | 5 | 0.0 | 0.0 | 0.00 | 0.00 | 0.00 | 65 | 1013.8 |
| 20260508023205 | 71 | 5 | 0.0 | 0.0 | 0.00 | 0.00 | 0.00 | 65 | 1013.7 |
| 20260508022204 | 71 | 10 | 0.0 | 3.0 | 0.00 | 0.00 | 0.00 | 65 | 1013.4 |
| 20260508021150 | 71 | 19 | 0.0 | 2.0 | 0.00 | 0.00 | 0.00 | 65 | 1013.5 |
| 20260508020132 | 72 | 19 | 0.0 | 1.0 | 0.00 | 0.00 | 0.00 | 65 | 1013.6 |
| 20260508015131 | 72 | 19 | 0.0 | 1.0 | 0.00 | 0.00 | 0.00 | 65 | 1013.5 |
| 20260508014110 | 72 | 19 | 0.0 | 0.0 | 0.00 | 0.00 | 0.00 | 65 | 1013.4 |
| 20260508013116 | 72 | 19 | 0.0 | 2.0 | 0.00 | 0.00 | 0.00 | 65 | 1013.5 |
| 20260508012129 | 73 | 19 | 0.0 | 0.0 | 0.00 | 0.00 | 0.00 | 65 | 1013.5 |
| 20260508011114 | 73 | 19 | 0.0 | 2.0 | 0.00 | 0.00 | 0.00 | 65 | 1013.3 |
| 20260508010047 | 73 | 33 | 0.0 | 1.0 | 0.00 | 0.00 | 0.00 | 65 | 1013.2 |
| 20260508000545 | 75 | 336 | 0.0 | 2.0 | 0.00 | 0.00 | 0.00 | 64 | 1013.3 |
| 20260507235607 | 75 | 252 | 0.0 | 0.0 | 0.00 | 0.00 | 0.00 | 64 | 1013.3 |
| 20260507234607 | 76 | 251 | 1.0 | 6.0 | 0.00 | 0.00 | 0.00 | 63 | 1013.5 |
| 20260507233609 | 76 | 305 | 0.0 | 4.0 | 0.00 | 0.00 | 0.00 | 63 | 1013.5 |
| 20260507232551 | 77 | 234 | 0.0 | 4.0 | 0.00 | 0.00 | 0.00 | 63 | 1013.4 |
| 20260507230335 | 77 | 355 | 0.0 | 5.0 | 0.00 | 0.00 | 0.00 | 64 | 1013.2 |
| 20260507225348 | 77 | 349 | 0.0 | 5.0 | 0.00 | 0.00 | 0.00 | 63 | 1013.2 |
| 20260507224349 | 77 | 282 | 0.0 | 3.0 | 0.00 | 0.00 | 0.00 | 62 | 1012.9 |
| 20260507223409 | 77 | 331 | 1.0 | 3.0 | 0.00 | 0.00 | 0.00 | 62 | 1012.7 |
| 20260507222354 | 77 | 340 | 0.0 | 3.0 | 0.00 | 0.00 | 0.00 | 64 | 1012.8 |
| 20260507221323 | 77 | 331 | 0.0 | 3.0 | 0.00 | 0.00 | 0.00 | 64 | 1012.8 |
| 20260507220306 | 77 | 317 | 0.0 | 4.0 | 0.00 | 0.00 | 0.00 | 63 | 1013.0 |
| 20260507215235 | 78 | 18 | 0.0 | 4.0 | 0.00 | 0.00 | 0.00 | 63 | 1013.1 |
| 20260507214249 | 78 | 88 | 0.0 | 4.0 | 0.00 | 0.00 | 0.00 | 63 | 1013.1 |
| 20260507213233 | 78 | 161 | 1.0 | 4.0 | 0.00 | 0.00 | 0.00 | 62 | 1013.0 |
| 20260507212221 | 78 | 192 | 0.0 | 5.0 | 0.00 | 0.00 | 0.00 | 64 | 1013.0 |
| 20260507211230 | 78 | 314 | 0.0 | 5.0 | 0.00 | 0.00 | 0.00 | 63 | 1013.3 |
| 20260507205145 | 79 | 328 | 0.0 | 7.0 | 0.00 | 0.00 | 0.00 | 63 | 1013.4 |
| 20260507204137 | 79 | 323 | 1.0 | 6.0 | 0.00 | 0.00 | 0.00 | 63 | 1013.5 |
| 20260507203119 | 79 | 5 | 0.0 | 5.0 | 0.00 | 0.00 | 0.00 | 62 | 1013.5 |
| 20260507202133 | 79 | 5 | 0.0 | 3.0 | 0.00 | 0.00 | 0.00 | 62 | 1013.6 |
| 20260507201126 | 79 | 327 | 0.0 | 3.0 | 0.00 | 0.00 | 0.00 | 63 | 1013.9 |
| 20260507200107 | 79 | 202 | 0.0 | 5.0 | 0.00 | 0.00 | 0.00 | 63 | 1013.7 |
| 20260507195112 | 79 | 355 | 1.0 | 5.0 | 0.00 | 0.00 | 0.00 | 62 | 1014.3 |
| 20260507192939 | 78 | 127 | 0.0 | 5.0 | 0.00 | 0.00 | 0.00 | 63 | 1014.0 |
| 20260507185640 | 76 | 140 | 1.0 | 4.0 | 0.00 | 0.00 | 0.00 | 65 | 1015.1 |
| 20260507184704 | 76 | 118 | 0.0 | 3.0 | 0.00 | 0.00 | 0.00 | 65 | 1015.0 |
| 20260507183726 | 76 | 317 | 0.0 | 3.0 | 0.00 | 0.00 | 0.00 | 65 | 1015.2 |
| 20260507182717 | 75 | 66 | 0.0 | 9.0 | 0.00 | 0.00 | 0.00 | 65 | 1015.2 |
| 20260507181737 | 75 | 350 | 1.0 | 9.0 | 0.00 | 0.00 | 0.00 | 65 | 1015.3 |